Printer-friendly version

IAU Minor Planet Center

Minor Planet Center

MPEC 2001-T21: 2001 TB

The following Minor Planet Electronic Circular may be linked-to from your own Web pages, but must not otherwise be redistributed electronically.


Read MPEC 2001-T20 Read MPEC 2001-T22


M.P.E.C. 2001-T21                                Issued 2001 Oct. 7, 16:32 UT

     The Minor Planet Electronic Circulars contain information on unusual
         minor planets and routine data on comets.  They are published
   on behalf of Commission 20 of the International Astronomical Union by the
          Minor Planet Center, Smithsonian Astrophysical Observatory,
                          Cambridge, MA 02138, U.S.A.

             Prepared using the Tamkin Foundation Computer Network

                              MPC@CFA.HARVARD.EDU
          URL http://cfa-www.harvard.edu/iau/mpc.html  ISSN 1523-6714

                                    2001 TB

Observations:
     K01T00B* C2001 10 06.10212 22 55 20.60 -06 24 20.5          17.4        704
     K01T00B  C2001 10 06.11792 22 55 02.80 -06 29 53.4          17.5        704
     K01T00B  C2001 10 06.13412 22 54 44.21 -06 35 37.1          17.7        704
     K01T00B  C2001 10 06.14988 22 54 25.85 -06 41 16.0          17.8        704
     K01T00B  C2001 10 06.16583 22 54 06.87 -06 47 01.1          17.8        704
     K01T00B  C2001 10 07.51074122 08 04.824-21 22 51.82         16.8 R      422
     K01T00B  C2001 10 07.51147022 08 01.710-21 23 41.71         16.2 R      422
     K01T00B  C2001 10 07.51197922 07 59.517-21 24 17.04         16.2 R      422
     K01T00B  C2001 10 07.51243122 07 57.591-21 24 48.06         16.6 R      422
     K01T00B  C2001 10 07.51296322 07 55.329-21 25 24.62         16.7 R      422
     K01T00B  C2001 10 07.51467622 07 47.978-21 27 22.34         16.7 R      422

Observer details:
422 Loomberah.  Observer G. J. Garradd.  0.45-m f/5.4 reflector + CCD.
704 Lincoln Laboratory ETS, New Mexico.  Observers M. Blythe, F. Shelly,
    M. Bezpalko, R. Huber, L. Manguso, S. Adams, J. Piscitelli.  Measurers
    J. Stuart, R. Sayer, J. B. Evans, H. Viggh.  1.0-m f/2.15 reflector + CCD.

Orbital elements:
2001 TB
Epoch 2001 Oct. 18.0 TT = JDT 2452200.5                 Marsden
M 345.24673              (2000.0)            P               Q
n   0.43517874     Peri.  244.80199     +0.22142432     -0.97506263
a   1.7246101      Node   192.43301     +0.91787182     +0.21357314
e   0.5278237      Incl.    3.98741     +0.32936696     +0.06032728
P   2.26           H   24.3           G   0.15           U   8
Residuals in seconds of arc
011006 704  0.2+  0.4+    011006 704  0.1+  0.3+    011007 422  0.2+  0.1-
011006 704  0.1-  0.3-    011007 422  0.5+  0.0     011007 422  0.4+  0.1-
011006 704  0.2-  0.2+    011007 422  0.4+  0.2+    011007 422  0.1+  0.1+
011006 704  0.5+  0.4-    011007 422  0.1+  0.2-

Ephemeris:
2001 TB                  a,e,i = 1.72, 0.53, 4                   q = 0.8143
Date    TT    R. A. (2000) Decl.     Delta      r     Elong.  Phase     V
2001 10 07.0  22 33.19   -13 42.8    0.014    1.010   140.9    38.6    16.5
2001 10 07.1  22 29.41   -14 56.4    0.013    1.009   139.4    40.1    16.5
2001 10 07.2  22 25.20   -16 17.1    0.012    1.009   137.8    41.8    16.4
2001 10 07.3  22 20.48   -17 46.0    0.012    1.008   136.0    43.6    16.3
2001 10 07.4  22 15.16   -19 24.0    0.011    1.007   134.0    45.6    16.3
2001 10 07.5  22 09.11   -21 12.3    0.011    1.006   131.8    47.8    16.2
2001 10 07.6  22 02.20   -23 12.0    0.010    1.006   129.3    50.2    16.2
2001 10 07.7  21 54.23   -25 24.2    0.0094   1.005   126.6    53.0    16.1
2001 10 07.8  21 44.97   -27 50.1    0.0089   1.004   123.5    56.1    16.1
2001 10 07.9  21 34.12   -30 30.2    0.0084   1.003   120.0    59.6    16.1
2001 10 08.0  21 21.29   -33 24.8    0.0080   1.003   116.2    63.4    16.1
2001 10 08.1  21 05.99   -36 32.6    0.0076   1.002   111.9    67.7    16.1
2001 10 08.2  20 47.62   -39 50.7    0.0072   1.001   107.1    72.5    16.1
2001 10 08.3  20 25.46   -43 13.6    0.0069   1.001   101.9    77.7    16.2
2001 10 08.4  19 58.78   -46 32.3    0.0067   1.000    96.3    83.3    16.3
2001 10 08.5  19 27.01   -49 34.1    0.0066   0.999    90.4    89.2    16.5
2001 10 08.6  18 50.13   -52 03.7    0.0065   0.998    84.2    95.4    16.8
2001 10 08.7  18 09.10   -53 46.6    0.0065   0.998    78.0   101.6    17.1
2001 10 08.8  17 26.13   -54 33.1    0.0066   0.997    71.9   107.7    17.4
2001 10 08.9  16 44.10   -54 22.6    0.0067   0.996    66.1   113.6    17.8
2001 10 09.0  16 05.54   -53 23.4    0.0069   0.996    60.5   119.1    18.3
2001 10 09.1  15 31.89   -51 49.2    0.0072   0.995    55.4   124.2    18.8
2001 10 09.2  15 03.42   -49 53.7    0.0076   0.994    50.8   128.8    19.3
2001 10 09.3  14 39.72   -47 48.3    0.0080   0.993    46.7   133.0    19.8
2001 10 09.4  14 20.07   -45 41.1    0.0084   0.993    43.0   136.6    20.3
2001 10 09.5  14 03.74   -43 37.1    0.0089   0.992    39.8   139.9    20.9
2001 10 09.6  13 50.09   -41 39.3    0.0094   0.991    36.9   142.7    21.4
2001 10 09.7  13 38.58   -39 49.1    0.010    0.990    34.4   145.2    21.9
2001 10 09.8  13 28.79   -38 07.0    0.011    0.990    32.2   147.4    22.4
2001 10 09.9  13 20.39   -36 32.8    0.011    0.989    30.3   149.4    22.8
2001 10 10.0  13 13.13   -35 06.3    0.012    0.988    28.6   151.0    23.2

Brian G. Marsden             (C) Copyright 2001 MPC           M.P.E.C. 2001-T21

Read MPEC 2001-T20 Read MPEC 2001-T22


Our Web policy. Index to the CBAT/MPC/ICQ pages.


Valid HTML 4.01!